Погода в Шымкенте

Погода в Шымкенте : погода сейчас, прогноз погоды и архив. Всё, что Вы хотите узнать о погоде в Шымкенте!

Поиск расширенной информации на нашем сайте:

Другие новости

Новости СМИ2

Главная страница сайта

Новости сайта

02.10.2013

Напоминаем, что на нашем новом сайте вы можете получить высокодетализированные прогнозы погоды по пунктам России, СНГ и мира (включающие важные для авиации метеовеличины, такие как направление и скорость ветра, видимость, явления погоды, количество и форма облачности, нижняя и верхняя граница облачности), а также ознакомиться с разнообразными материалами по авиационной метеорологии и подборкой полезных ссылок на эту тему.

Сайт Метеоцентр.Азия посвящён разработке технологий оптимизации авиаметеорологического обслуживания, включая проектирование и перспективное создание нескольких автоматизированных авиаметеорологических систем:
- система выпуска высокодетальных прогностических карт явлений погоды для нижнего воздушного пространства по России и ближнему зарубежью;
- система верификации прогнозов TAF (выпускаемых синоптиками официальных АМСГ РФ и ближнего зарубежья) и AUTOTAF (выпускаемых сайтом Метеоцентр.Азия) - выявление ошибок, онлайн-сопоставление с фактической погодой METAR, автоматическое внесение коррективов в прогнозы при резком отклонении фактической погоды от прогноза, подсчёт оправдываемости прогнозов по элементам и в целом;
- система обработки, анализа и отображения авиаметеорологической информации для применения провайдерами метеорологической информации.

Рекомендуем: Заливка фундамента вручную в Калуге.

Погода в Шымкенте - сегодня

Время (UTC), дата Ветер
(°,м/с) 
Видим.   Явления Облачность Т
(°С)
Тd
(°С)
f(%) Тe
(°С)
Pmin
(гПа)
dP
(гПа)
Po
(мм)
O2
(г/м3)
Тmin Tmax R s Состояние
почвы
12 24.02.17 170 (Ю) 20000 м    10/6 600 м средняя 
[Sc|As trans]
+11.4 -0.2 45 +13  1018  0.2  710  275           
15 24.02.17 180 (Ю) н/о    10/10 600 м 
[Sc]
+7.8 +1.8 66 +9  1020.2  1.5  711  278    +12.8       
18 24.02.17 220 (ЮЗ) н/о    10/10 600 м кучево-дожд. 
[Cb cap]
+5.3 -1.5 61 +4  1023.4  2.3  713  282    +12.8       
21 24.02.17 210 (ЮЗ) н/о  {ливн. осадки}  9/9 600 м кучево-дожд. 
[Cb cap]
+6.1 +2.4 77 +4  1022.5  -0.5  713  280           
00 25.02.17 240 (ЮЗ) 5{15}  н/о  слаб. ливневой дождь  10/10 600 м кучево-дожд. 
[Cb cap]
+7.1 +1.9 69 +5  1022.6  0.2  713  280           
03 25.02.17 260 (З) 4000 м  слаб. ливневой дождь  10/10 600 м кучево-дожд. 
[Cb cap]
+4.5 +2.8 89 +3  1024.8  1.5  714  283         
06 25.02.17 230 (ЮЗ) 4000 м  дымка{гроза, ливн. осадки}  10/10 600 м кучево-дожд. 
[Cb cap]
+5.8 +3.9 88 +4  1026.1  1.5  715  281  +4.3       
09 25.02.17 230 (ЮЗ) 8-16{18}  20000 м    8/0 средняя 
[Ac trans]
+8 +1.7 64 +5  1024.9  -0.8  715  279           
12 25.02.17 260 (З) 4{19}  4000 м  слаб. ливневой дождь  10/10 600 м кучево-дожд. 
[Cb cap]
+5 +2 81 +3  1028  2.1  716  283           
15 25.02.17 290 (З) н/о  {ливн. осадки}  10/10 600 м кучево-дожд. 
[Cb cap]
+2.6 -0.1 82 +2  1031.2  2.3  718  287    +8.4     
18 25.02.17 070 (В) н/о  {ливн. осадки}  3/0 средняя 
[Ac trans]
+0.8 -1.5 85 +1  1032.4  0.7  719  289    +8.4     
21 25.02.17 060 (СВ) н/о    ясно 
-0.6 -3.4 81 1031.3  -1.4  718  290           
00 26.02.17 110 (В) н/о  дымка  ясно 
+0 -1.8 88 +1  1030.9  -0.3  719  290           
03 26.02.17 120 (ЮВ) 20000 м    3/0 средняя 
[Ac trans]
+0.4 -3.2 77 1029.9  -0.8  717  289           
06 26.02.17 120 (ЮВ) 20000 м    9/0 верхняя 
[Cs]
+8.1 -1.7 50 +8  1027.2  -0.5  716  280  -0.7         
09 26.02.17 090 (В) 20000 м    8/0 верхняя 
[Cs]
+10.2 -1.9 43 +10  1024.1  -2.4  715  278           
12 26.02.17 100 (В) 20000 м    8/0 верхняя 
[Ci ing]
+10.8 -1.7 42 +10  1022.7  -1.2  714  277           
15 26.02.17 120 (ЮВ) н/о    ясно 
+4.5 -3.6 56 +4  1023  -1.2  713  283    +12       
18 26.02.17 070 (В) н/о    ясно 
+2.4 -4.7 59 +3  1021.9  -1.6  712  285    +12       
21 26.02.17 090 (В) н/о    ясно 
+1.9 -4.6 62 +3  1021.9  -0.2  711  285           
00 27.02.17 120 (ЮВ) н/о    ясно 
-0.1 -4.6 72 +1  1021.7  -0.6  711  287           
03 27.02.17 110 (В) 20000 м    ясно 
+1 -5 64 +2  1023.1  1.5  709  285           
06 27.02.17 140 (ЮВ) 20000 м    ясно 
+12.8 -7.1 24 +14  1020.9  0.9  713  275  -0.8         
09 27.02.17 310 (СЗ) 20000 м    ясно 
+15.2 -3 28 +17  1020.1  -0.1  713  272           
12 27.02.17 040 (СВ) 20000 м    ясно 
+15.1 -2.7 29 +16  1020.1  -0.1  713  272           
Время (UTC), дата Ветер
(°,м/с) 
Видим.   Явления Облачность Т
(°С)
Тd
(°С)
f(%) Тe
(°С)
Pmin
(гПа)
dP
(гПа)
Po
(мм)
O2
(г/м3)
Тmin Tmax R s Состояние
почвы

Для получения пояснительной информации подведите курсор к названию столбца.

ПОГОДА в Шымкенте - архив

Всё, что Вы хотите узнать о погоде в Шымкенте - удобно и подробно!

Выберите нужную дату (начиная с 1 января 2015* года) и нажмите кнопку "Найти".
Будут отображены архивные сводки погоды по пункту Шымкент, начиная с указанной даты.


Отображать данные в формате CSV (для использования в таблицах Excel)


Внимание! Наш архив погоды предназначен исключительно для личного некоммерческого использования в познавательных целях. Если Вам необходимы официальные справки о состоянии погоды (для производственных, юридических, коммерческих и т.п. целей), обращайтесь в органы Росгидромета.

*Примечание: данная дата относится к архиву по метеостанциям СССР (Россия, СНГ, Балтия).
Архив по метеостанциям Зарубежной Европы и Азии (кроме Китая) хранится 10 дней, по другим регионам земного шара (Китай, Африка, Америка, Австралия, Океания) - 1 день.

Шымкент - район местоположения метеостанции


Название, широта, долгота, высота метеостанции:
Шымкент (город) 42.3°ш. 69.7°д. 604 м над ур. моря [Казахстан]

Дополнительная информация

В oтличие oт бoльшинства пoгoдных сайтoв мы публикуем пoдрoбную метеoинфoрмацию в детальнoм прoфессиoнальнoм фoрмате.

Характеристики температуры и влажнoсти вoздуха измеряются на высoте 2 м в тени вдали oт зданий и деревьев.
Скoрoсть ветра измеряется на высoте 10 м (на урoвне рoста челoвека скoрoсть ветра ниже в 1.5-2 раза). Если метеoстанция нахoдится в гoрoде или в лесу, тo скoрoсть ветра занижена на 2-4 м/с пo сравнению с oткрытым местoм. Скoрoсть ветра над акватoриями крупных рек и oзёр, а также на вершинах хoлмoв на 2-5 м/с выше, чем в oбычных услoвиях.
Атмoсфернoе давление в разных тoчках местнoсти мoжет значительнo oтличаться oт давления на метеoстанции, в зависимoсти oт услoвий рельефа (при пoдъёме на 10 м давление пoнижается примернo на 1 мм рт.ст.).